Flag Weather past 2 weeks in Eilat, Israel

Now
66 °F

Sunny.


Feels Like: 66 °F
Forecast: 57 / 69 °F
Wind: 5 mph from Northeast

Location: Eilat

Current Time: Nov 23, 2014 at 8:16:43 AM

Latest Report: Nov 23, 2014 at 7:50 AM


Visibility: 10 mi

Pressure: 30.09 "Hg

Humidity: 52%

Dew point: 48 °F

Location of EilatLocation

Historic Weather in Eilat — Graph

°F

Eilat temperature yesterday

Maximum temperature yesterday: 81 °F (at 12:50 PM)
Minimum temperature yesterday: 68 °F (at 6:50 AM)
Average temperature yesterday: 75 °F

Past Weeks' High & Low Weather Summary

 TemperatureHumidityPressure
High91 °F (Nov 8, 1:50 PM)73% (Nov 18, 5:50 AM)30.15 "Hg (Nov 18, 5:50 AM)
Low59 °F (Nov 14, 5:50 AM)8% (Nov 8, 10:50 AM)29.86 "Hg (Nov 13, 1:50 PM)
Average78 °F35%30.00 "Hg
* Reported Nov 8 6:50 AM — Nov 23 6:50 AM, Eilat, Weather by CustomWeather, © 2014

Note: Actual official high and low records may vary slightly from our data, if they occured in-between our weather recording intervals... More about our weather records

Advertising

Eilat weather history for previous 24 hours

 ConditionsComfort  
Time TempWeatherWind HumidityBarometerVisibility
6:50 AM
Nov 23
66 °FSunny.3 mph52%30.07 "Hg10 mi
5:50 AM64 °FClear.5 mph60%30.07 "Hg10 mi
10:50 PM
Nov 22
72 °FClear.9 mph57%30.07 "Hg10 mi
9:50 PM73 °FClear.7 mph47%30.07 "Hg10 mi
8:50 PM72 °FPassing clouds.6 mph47%30.07 "HgN/A
7:50 PM72 °FClear.6 mph47%30.07 "Hg10 mi
6:50 PM75 °FClear.7 mph39%30.04 "Hg10 mi
5:50 PM77 °FClear.6 mph34%30.04 "Hg10 mi
4:50 PM79 °FClear.5 mph32%30.01 "Hg10 mi
3:50 PM79 °FSunny.7 mph30%30.01 "Hg10 mi
2:50 PM81 °FSunny.8 mph28%30.01 "Hg10 mi
1:50 PM81 °FSunny.3 mph28%30.01 "Hg10 mi
12:50 PM81 °FSunny.5 mph30%30.04 "Hg10 mi
11:50 AM77 °FPassing clouds.6 mph39%30.07 "HgN/A
10:50 AM75 °FPassing clouds.6 mph44%30.07 "HgN/A
9:50 AM75 °FSunny.2 mph47%30.09 "Hg10 mi
8:50 AM72 °FSunny.3 mph57%30.09 "Hg10 mi
Weather by CustomWeather, © 2014

See weather overviewHow to use our weather pages